| time (UTC) | temp C | wind direction | speed KPH | gust KPH | rain 1hr cm | rain 24hr cm | rain mn cm | humidity % | barometer mb |
| 20260904104905 | 25 | 355 | 0.0 | 0.0 | 0.00 | 0.00 | 0.00 | 58 | 1021.6 |
| 20260904104405 | 25 | 28 | 1.6 | 9.7 | 0.00 | 0.00 | 0.00 | 59 | 1021.7 |
| 20260904103905 | 25 | 65 | 0.0 | 3.2 | 0.00 | 0.00 | 0.00 | 59 | 1021.6 |
| 20260904103404 | 25 | 23 | 1.6 | 19.3 | 0.00 | 0.00 | 0.00 | 59 | 1021.7 |
| 20260904102905 | 25 | 10 | 11.3 | 19.3 | 0.00 | 0.00 | 0.00 | 58 | 1022.0 |
| 20260904102405 | 25 | 27 | 16.1 | 32.2 | 0.00 | 0.00 | 0.00 | 59 | 1022.0 |
| 20260904101405 | 24 | 268 | 0.0 | 9.7 | 0.00 | 0.00 | 0.00 | 58 | 1020.6 |
| 20260904100405 | 24 | 296 | 4.8 | 11.3 | 0.00 | 0.00 | 0.00 | 59 | 1021.0 |
| 20260904095905 | 24 | 225 | 0.0 | 8.0 | 0.00 | 0.00 | 0.00 | 59 | 1020.9 |
| 20260904095405 | 24 | 228 | 3.2 | 11.3 | 0.00 | 0.00 | 0.00 | 59 | 1020.9 |
| 20260904094905 | 24 | 242 | 4.8 | 14.5 | 0.00 | 0.00 | 0.00 | 58 | 1020.9 |
| 20260904094405 | 24 | 194 | 9.7 | 12.9 | 0.00 | 0.00 | 0.00 | 58 | 1021.0 |
| 20260904093905 | 24 | 50 | 0.0 | 1.6 | 0.00 | 0.00 | 0.00 | 59 | 1021.7 |
| 20260904093405 | 24 | 222 | 0.0 | 1.6 | 0.00 | 0.00 | 0.00 | 58 | 1021.6 |
| 20260904092905 | 24 | 222 | 0.0 | 0.0 | 0.00 | 0.00 | 0.00 | 58 | 1021.5 |
| 20260904092405 | 24 | 222 | 0.0 | 0.0 | 0.00 | 0.00 | 0.00 | 58 | 1021.5 |
| 20260904091905 | 24 | 222 | 0.0 | 0.0 | 0.00 | 0.00 | 0.00 | 58 | 1021.5 |
| 20260904091405 | 23 | 222 | 0.0 | 0.0 | 0.00 | 0.00 | 0.00 | 58 | 1021.3 |
| 20260904090905 | 23 | 222 | 0.0 | 0.0 | 0.00 | 0.00 | 0.00 | 59 | 1021.3 |
| 20260904085905 | 23 | 225 | 3.2 | 11.3 | 0.00 | 0.00 | 0.00 | 59 | 1021.1 |
| 20260904084905 | 23 | 224 | 4.8 | 9.7 | 0.00 | 0.00 | 0.00 | 58 | 1021.1 |
| 20260904084404 | 23 | 229 | 0.0 | 1.6 | 0.00 | 0.00 | 0.00 | 59 | 1021.2 |
| 20260904083904 | 23 | 229 | 0.0 | 0.0 | 0.00 | 0.00 | 0.00 | 59 | 1021.3 |
| 20260904082405 | 23 | 201 | 8.0 | 11.3 | 0.00 | 0.00 | 0.00 | 58 | 1021.2 |
| 20260904081904 | 23 | 218 | 0.0 | 0.0 | 0.00 | 0.00 | 0.00 | 59 | 1021.3 |
| 20260904081405 | 23 | 240 | 0.0 | 1.6 | 0.00 | 0.00 | 0.00 | 59 | 1021.3 |
| 20260904080905 | 23 | 9 | 0.0 | 1.6 | 0.00 | 0.00 | 0.00 | 58 | 1021.4 |
| 20260904080405 | 23 | 9 | 0.0 | 1.6 | 0.00 | 0.00 | 0.00 | 59 | 1021.3 |
| 20260904075405 | 22 | 9 | 0.0 | 0.0 | 0.00 | 0.00 | 0.00 | 58 | 1021.3 |
| 20260904074904 | 22 | 9 | 0.0 | 0.0 | 0.00 | 0.00 | 0.00 | 58 | 1021.3 |
| 20260904074405 | 23 | 9 | 1.6 | 11.3 | 0.00 | 0.00 | 0.00 | 57 | 1021.3 |
| 20260904073905 | 23 | 346 | 8.0 | 11.3 | 0.00 | 0.00 | 0.00 | 56 | 1021.2 |
| 20260904073405 | 23 | 288 | 1.6 | 4.8 | 0.00 | 0.00 | 0.00 | 56 | 1020.9 |
| 20260904071905 | 23 | 5 | 0.0 | 1.6 | 0.00 | 0.00 | 0.00 | 58 | 1020.8 |
| 20260904071405 | 23 | 5 | 0.0 | 1.6 | 0.00 | 0.00 | 0.00 | 58 | 1020.8 |
| 20260904070904 | 23 | 5 | 0.0 | 0.0 | 0.00 | 0.00 | 0.00 | 57 | 1021.0 |
| 20260904070404 | 23 | 5 | 0.0 | 1.6 | 0.00 | 0.00 | 0.00 | 56 | 1020.9 |
| 20260904065405 | 23 | 5 | 0.0 | 0.0 | 0.00 | 0.00 | 0.00 | 55 | 1020.2 |
| 20260904064904 | 23 | 5 | 0.0 | 0.0 | 0.00 | 0.00 | 0.00 | 55 | 1020.1 |
| 20260904064405 | 23 | 5 | 0.0 | 0.0 | 0.00 | 0.00 | 0.00 | 55 | 1020.2 |
| 20260904063905 | 23 | 5 | 0.0 | 0.0 | 0.00 | 0.00 | 0.00 | 55 | 1019.9 |
| 20260904061905 | 23 | 5 | 0.0 | 0.0 | 0.00 | 0.00 | 0.00 | 55 | 1019.8 |
| 20260904061405 | 23 | 5 | 0.0 | 0.0 | 0.00 | 0.00 | 0.00 | 54 | 1019.6 |
| 20260904060905 | 23 | 5 | 0.0 | 0.0 | 0.00 | 0.00 | 0.00 | 54 | 1019.6 |
| 20260904060405 | 23 | 5 | 0.0 | 0.0 | 0.00 | 0.00 | 0.00 | 54 | 1019.4 |
| 20260904055404 | 23 | 5 | 0.0 | 0.0 | 0.00 | 0.00 | 0.00 | 55 | 1019.2 |
| 20260904054904 | 23 | 5 | 0.0 | 0.0 | 0.00 | 0.00 | 0.00 | 55 | 1019.0 |
| 20260904054405 | 23 | 5 | 0.0 | 0.0 | 0.00 | 0.00 | 0.00 | 55 | 1019.2 |
| 20260904053904 | 23 | 5 | 0.0 | 1.6 | 0.00 | 0.00 | 0.00 | 53 | 1019.1 |
| 20260904053405 | 24 | 5 | 0.0 | 1.6 | 0.00 | 0.00 | 0.00 | 53 | 1019.0 |
| 20260904052905 | 24 | 11 | 0.0 | 1.6 | 0.00 | 0.00 | 0.00 | 53 | 1018.8 |
| 20260904052404 | 24 | 263 | 0.0 | 1.6 | 0.00 | 0.00 | 0.00 | 53 | 1018.8 |
| 20260904051905 | 24 | 265 | 0.0 | 1.6 | 0.00 | 0.00 | 0.00 | 54 | 1018.8 |
| 20260904051404 | 24 | 248 | 0.0 | 1.6 | 0.00 | 0.00 | 0.00 | 54 | 1018.7 |
| 20260904050404 | 23 | 251 | 3.2 | 8.0 | 0.00 | 0.00 | 0.00 | 54 | 1018.7 |
| 20260904045905 | 23 | 245 | 0.0 | 1.6 | 0.00 | 0.00 | 0.00 | 54 | 1018.9 |
| 20260904045405 | 23 | 309 | 0.0 | 0.0 | 0.00 | 0.00 | 0.00 | 54 | 1019.0 |
| 20260904044905 | 23 | 247 | 0.0 | 4.8 | 0.00 | 0.00 | 0.00 | 54 | 1019.0 |
| 20260904043905 | 23 | 240 | 1.6 | 12.9 | 0.00 | 0.00 | 0.00 | 53 | 1019.0 |
| 20260904042905 | 24 | 254 | 0.0 | 8.0 | 0.00 | 0.00 | 0.00 | 53 | 1019.2 |
| 20260904042405 | 24 | 236 | 6.4 | 9.7 | 0.00 | 0.00 | 0.00 | 55 | 1019.0 |
| 20260904041904 | 24 | 37 | 0.0 | 0.0 | 0.00 | 0.00 | 0.00 | 55 | 1019.5 |
| 20260904041405 | 25 | 37 | 0.0 | 0.0 | 0.00 | 0.00 | 0.00 | 55 | 1019.3 |
| 20260904040905 | 24 | 37 | 0.0 | 0.0 | 0.00 | 0.00 | 0.00 | 56 | 1019.4 |
| 20260904040404 | 24 | 37 | 0.0 | 1.6 | 0.00 | 0.00 | 0.00 | 56 | 1019.4 |
| 20260904035905 | 24 | 37 | 0.0 | 0.0 | 0.00 | 0.00 | 0.00 | 56 | 1019.5 |
| 20260904034905 | 24 | 37 | 0.0 | 3.2 | 0.00 | 0.00 | 0.00 | 56 | 1019.9 |
| 20260904034404 | 23 | 249 | 0.0 | 0.0 | 0.00 | 0.00 | 0.00 | 55 | 1019.8 |
| 20260904033905 | 23 | 249 | 0.0 | 1.6 | 0.00 | 0.00 | 0.00 | 56 | 1019.7 |
| 20260904032905 | 23 | 217 | 0.0 | 0.0 | 0.00 | 0.00 | 0.00 | 56 | 1019.7 |
| 20260904032405 | 23 | 217 | 0.0 | 0.0 | 0.00 | 0.00 | 0.00 | 55 | 1019.8 |
| 20260904031906 | 23 | 217 | 0.0 | 3.2 | 0.00 | 0.00 | 0.00 | 54 | 1019.8 |
| 20260904031404 | 24 | 61 | 8.0 | 19.3 | 0.00 | 0.00 | 0.00 | 54 | 1020.1 |
| 20260904030405 | 25 | 329 | 3.2 | 11.3 | 0.00 | 0.00 | 0.00 | 50 | 1019.0 |
| 20260904024905 | 25 | 289 | 0.0 | 4.8 | 0.00 | 0.00 | 0.00 | 47 | 1018.7 |
| 20260904024404 | 25 | 301 | 1.6 | 8.0 | 0.00 | 0.00 | 0.00 | 47 | 1018.7 |
| 20260904023904 | 25 | 275 | 1.6 | 8.0 | 0.00 | 0.00 | 0.00 | 48 | 1018.7 |
| 20260904023404 | 25 | 287 | 1.6 | 9.7 | 0.00 | 0.00 | 0.00 | 48 | 1018.7 |
| 20260904022905 | 25 | 346 | 1.6 | 4.8 | 0.00 | 0.00 | 0.00 | 48 | 1018.8 |
| 20260904021905 | 25 | 346 | 0.0 | 0.0 | 0.00 | 0.00 | 0.00 | 48 | 1018.9 |
| 20260904021404 | 25 | 346 | 0.0 | 0.0 | 0.00 | 0.00 | 0.00 | 47 | 1018.9 |
| 20260904020905 | 26 | 346 | 0.0 | 8.0 | 0.00 | 0.00 | 0.00 | 47 | 1019.0 |
| 20260904020405 | 26 | 346 | 1.6 | 8.0 | 0.00 | 0.00 | 0.00 | 46 | 1019.1 |
| 20260904015405 | 26 | 346 | 0.0 | 0.0 | 0.00 | 0.00 | 0.00 | 45 | 1019.3 |
| 20260904014905 | 26 | 346 | 0.0 | 0.0 | 0.00 | 0.00 | 0.00 | 45 | 1019.3 |
| 20260904014405 | 26 | 346 | 0.0 | 0.0 | 0.00 | 0.00 | 0.00 | 44 | 1019.3 |
| 20260904013905 | 26 | 346 | 0.0 | 0.0 | 0.00 | 0.00 | 0.00 | 44 | 1019.3 |
| 20260904013405 | 26 | 346 | 0.0 | 1.6 | 0.00 | 0.00 | 0.00 | 43 | 1019.4 |
| 20260904012905 | 26 | 327 | 1.6 | 9.7 | 0.00 | 0.00 | 0.00 | 42 | 1019.3 |
| 20260904012405 | 26 | 304 | 6.4 | 9.7 | 0.00 | 0.00 | 0.00 | 43 | 1019.2 |
| 20260904011905 | 26 | 296 | 0.0 | 8.0 | 0.00 | 0.00 | 0.00 | 43 | 1019.2 |
| 20260904010904 | 26 | 17 | 0.0 | 1.6 | 0.00 | 0.00 | 0.00 | 45 | 1019.3 |
| 20260904010405 | 27 | 19 | 0.0 | 0.0 | 0.00 | 0.00 | 0.00 | 48 | 1019.5 |
| 20260904005905 | 27 | 19 | 0.0 | 0.0 | 0.00 | 0.00 | 0.00 | 51 | 1019.5 |
| 20260904005405 | 27 | 19 | 0.0 | 0.0 | 0.00 | 0.00 | 0.00 | 52 | 1019.4 |
| 20260904004905 | 27 | 19 | 0.0 | 0.0 | 0.00 | 0.00 | 0.00 | 53 | 1019.4 |
| 20260904004405 | 27 | 19 | 0.0 | 0.0 | 0.00 | 0.00 | 0.00 | 54 | 1019.4 |
| 20260904003905 | 27 | 19 | 0.0 | 0.0 | 0.00 | 0.00 | 0.00 | 54 | 1019.4 |
| 20260904003405 | 27 | 19 | 0.0 | 0.0 | 0.00 | 0.00 | 0.00 | 54 | 1019.4 |
| 20260904002905 | 27 | 19 | 0.0 | 0.0 | 0.00 | 0.00 | 0.00 | 54 | 1019.4 |
| 20260904002404 | 27 | 19 | 0.0 | 0.0 | 0.00 | 0.00 | 0.00 | 53 | 1019.4 |
| 20260904001904 | 27 | 19 | 0.0 | 0.0 | 0.00 | 0.00 | 0.00 | 53 | 1019.4 |
| 20260904001404 | 27 | 19 | 0.0 | 0.0 | 0.00 | 0.00 | 0.00 | 52 | 1019.5 |
| 20260904000904 | 27 | 19 | 0.0 | 0.0 | 0.00 | 0.00 | 0.00 | 52 | 1019.6 |
| 20260904000404 | 27 | 19 | 0.0 | 0.0 | 0.00 | 0.00 | 0.00 | 51 | 1019.6 |
| 20260903235905 | 27 | 19 | 0.0 | 3.2 | 0.00 | 0.00 | 0.00 | 50 | 1019.7 |
| 20260903235405 | 27 | 19 | 0.0 | 0.0 | 0.00 | 0.00 | 0.00 | 49 | 1019.7 |
| 20260903234904 | 27 | 19 | 0.0 | 4.8 | 0.00 | 0.00 | 0.00 | 48 | 1019.7 |
| 20260903234405 | 27 | 19 | 0.0 | 0.0 | 0.00 | 0.00 | 0.00 | 46 | 1019.7 |
| 20260903233905 | 27 | 19 | 0.0 | 0.0 | 0.00 | 0.00 | 0.00 | 44 | 1019.7 |
| 20260903233405 | 27 | 19 | 0.0 | 0.0 | 0.00 | 0.00 | 0.00 | 44 | 1019.7 |
| 20260903232904 | 27 | 19 | 0.0 | 0.0 | 0.00 | 0.00 | 0.00 | 43 | 1019.6 |
| 20260903232404 | 27 | 19 | 0.0 | 0.0 | 0.00 | 0.00 | 0.00 | 41 | 1019.5 |
| 20260903231905 | 27 | 19 | 0.0 | 4.8 | 0.00 | 0.00 | 0.00 | 40 | 1019.6 |
| 20260903230905 | 30 | 38 | 9.7 | 16.1 | 0.00 | 0.00 | 0.00 | 36 | 1019.5 |
| 20260903230404 | 30 | 186 | 0.0 | 0.0 | 0.00 | 0.00 | 0.00 | 34 | 1019.2 |
| 20260903225405 | 31 | 186 | 0.0 | 0.0 | 0.00 | 0.00 | 0.00 | 34 | 1019.1 |
| 20260903224405 | 31 | 186 | 0.0 | 0.0 | 0.00 | 0.00 | 0.00 | 34 | 1019.1 |
| 20260903223905 | 31 | 186 | 0.0 | 0.0 | 0.00 | 0.00 | 0.00 | 32 | 1019.0 |
| 20260903223405 | 32 | 186 | 0.0 | 0.0 | 0.00 | 0.00 | 0.00 | 32 | 1019.0 |
| 20260903222905 | 32 | 186 | 0.0 | 0.0 | 0.00 | 0.00 | 0.00 | 32 | 1019.0 |
| 20260903222404 | 32 | 186 | 0.0 | 0.0 | 0.00 | 0.00 | 0.00 | 30 | 1019.0 |
| 20260903221905 | 32 | 186 | 0.0 | 0.0 | 0.00 | 0.00 | 0.00 | 29 | 1019.0 |
| 20260903221404 | 32 | 186 | 0.0 | 0.0 | 0.00 | 0.00 | 0.00 | 29 | 1019.0 |
| 20260903220904 | 32 | 186 | 0.0 | 0.0 | 0.00 | 0.00 | 0.00 | 29 | 1019.0 |
| 20260903220404 | 32 | 186 | 3.2 | 4.8 | 0.00 | 0.00 | 0.00 | 29 | 1019.0 |
| 20260903215904 | 33 | 186 | 1.6 | 3.2 | 0.00 | 0.00 | 0.00 | 29 | 1019.0 |
| 20260903215404 | 33 | 186 | 0.0 | 0.0 | 0.00 | 0.00 | 0.00 | 28 | 1019.0 |
| 20260903214904 | 33 | 186 | 0.0 | 0.0 | 0.00 | 0.00 | 0.00 | 28 | 1018.9 |
| 20260903214404 | 33 | 186 | 0.0 | 1.6 | 0.00 | 0.00 | 0.00 | 28 | 1018.9 |
| 20260903213405 | 33 | 186 | 0.0 | 0.0 | 0.00 | 0.00 | 0.00 | 28 | 1019.0 |
| 20260903212904 | 34 | 186 | 0.0 | 0.0 | 0.00 | 0.00 | 0.00 | 27 | 1019.0 |
| 20260903212407 | 34 | 186 | 0.0 | 1.6 | 0.00 | 0.00 | 0.00 | 26 | 1019.1 |
| 20260903211904 | 34 | 186 | 0.0 | 0.0 | 0.00 | 0.00 | 0.00 | 26 | 1019.0 |
| 20260903211405 | 34 | 186 | 1.6 | 4.8 | 0.00 | 0.00 | 0.00 | 26 | 1019.2 |
| 20260903210906 | 34 | 186 | 3.2 | 4.8 | 0.00 | 0.00 | 0.00 | 26 | 1019.1 |
| 20260903210405 | 34 | 186 | 1.6 | 4.8 | 0.00 | 0.00 | 0.00 | 26 | 1019.0 |
| 20260903205404 | 34 | 186 | 1.6 | 8.0 | 0.00 | 0.00 | 0.00 | 25 | 1019.0 |
| 20260903204904 | 34 | 186 | 4.8 | 9.7 | 0.00 | 0.00 | 0.00 | 26 | 1019.0 |
| 20260903203904 | 34 | 186 | 1.6 | 3.2 | 0.00 | 0.00 | 0.00 | 27 | 1019.0 |
| 20260903203405 | 34 | 186 | 0.0 | 4.8 | 0.00 | 0.00 | 0.00 | 27 | 1019.0 |
| 20260903202904 | 35 | 186 | 3.2 | 8.0 | 0.00 | 0.00 | 0.00 | 27 | 1018.9 |
| 20260903202405 | 35 | 186 | 3.2 | 4.8 | 0.00 | 0.00 | 0.00 | 26 | 1018.9 |
| 20260903201905 | 35 | 186 | 0.0 | 0.0 | 0.00 | 0.00 | 0.00 | 26 | 1018.8 |
| 20260903201404 | 35 | 186 | 0.0 | 0.0 | 0.00 | 0.00 | 0.00 | 25 | 1018.7 |
| 20260903200905 | 35 | 186 | 0.0 | 0.0 | 0.00 | 0.00 | 0.00 | 25 | 1018.7 |
| 20260903195904 | 36 | 186 | 3.2 | 9.7 | 0.00 | 0.00 | 0.00 | 24 | 1018.5 |
| 20260903195404 | 36 | 212 | 1.6 | 9.7 | 0.00 | 0.00 | 0.00 | 24 | 1018.4 |
| 20260903194904 | 36 | 269 | 3.2 | 8.0 | 0.00 | 0.00 | 0.00 | 24 | 1018.4 |
| 20260903193904 | 36 | 241 | 0.0 | 4.8 | 0.00 | 0.00 | 0.00 | 24 | 1018.2 |
| 20260903193405 | 36 | 241 | 3.2 | 8.0 | 0.00 | 0.00 | 0.00 | 24 | 1018.2 |
| 20260903192905 | 36 | 241 | 3.2 | 4.8 | 0.00 | 0.00 | 0.00 | 24 | 1018.1 |
| 20260903192405 | 36 | 241 | 4.8 | 8.0 | 0.00 | 0.00 | 0.00 | 23 | 1018.2 |
| 20260903191405 | 37 | 238 | 4.8 | 8.0 | 0.00 | 0.00 | 0.00 | 23 | 1018.1 |
| 20260903190906 | 37 | 224 | 3.2 | 8.0 | 0.00 | 0.00 | 0.00 | 22 | 1018.1 |
| 20260903190405 | 37 | 224 | 1.6 | 3.2 | 0.00 | 0.00 | 0.00 | 22 | 1018.1 |
| 20260903184906 | 37 | 224 | 0.0 | 3.2 | 0.00 | 0.00 | 0.00 | 21 | 1018.1 |
| 20260903184406 | 37 | 224 | 0.0 | 1.6 | 0.00 | 0.00 | 0.00 | 22 | 1018.1 |
| 20260903183905 | 37 | 224 | 0.0 | 1.6 | 0.00 | 0.00 | 0.00 | 22 | 1018.1 |
| 20260903183407 | 38 | 224 | 0.0 | 3.2 | 0.00 | 0.00 | 0.00 | 21 | 1018.1 |
| 20260903182905 | 38 | 224 | 0.0 | 1.6 | 0.00 | 0.00 | 0.00 | 21 | 1018.1 |
| 20260903182406 | 38 | 224 | 1.6 | 8.0 | 0.00 | 0.00 | 0.00 | 21 | 1018.1 |
| 20260903181905 | 38 | 224 | 0.0 | 3.2 | 0.00 | 0.00 | 0.00 | 20 | 1018.1 |
| 20260903181405 | 39 | 224 | 0.0 | 0.0 | 0.00 | 0.00 | 0.00 | 20 | 1018.2 |
| 20260903180905 | 39 | 224 | 0.0 | 4.8 | 0.00 | 0.00 | 0.00 | 20 | 1018.2 |
| 20260903175905 | 40 | 224 | 0.0 | 3.2 | 0.00 | 0.00 | 0.00 | 19 | 1018.1 |
| 20260903174905 | 40 | 224 | 0.0 | 1.6 | 0.00 | 0.00 | 0.00 | 19 | 1018.2 |
| 20260903174405 | 40 | 224 | 3.2 | 8.0 | 0.00 | 0.00 | 0.00 | 18 | 1018.1 |
| 20260903173905 | 40 | 224 | 4.8 | 8.0 | 0.00 | 0.00 | 0.00 | 18 | 1018.2 |
| 20260903173405 | 40 | 224 | 3.2 | 8.0 | 0.00 | 0.00 | 0.00 | 18 | 1018.2 |
| 20260903172906 | 40 | 224 | 1.6 | 4.8 | 0.00 | 0.00 | 0.00 | 18 | 1018.2 |
| 20260903172405 | 40 | 224 | 0.0 | 1.6 | 0.00 | 0.00 | 0.00 | 18 | 1018.3 |
| 20260903171906 | 40 | 224 | 3.2 | 9.7 | 0.00 | 0.00 | 0.00 | 18 | 1018.2 |
| 20260903171406 | 40 | 242 | 3.2 | 8.0 | 0.00 | 0.00 | 0.00 | 18 | 1018.3 |
| 20260903170906 | 40 | 242 | 1.6 | 9.7 | 0.00 | 0.00 | 0.00 | 18 | 1018.2 |
| 20260903170405 | 40 | 237 | 8.0 | 11.3 | 0.00 | 0.00 | 0.00 | 18 | 1018.3 |
| 20260903165905 | 40 | 221 | 1.6 | 4.8 | 0.00 | 0.00 | 0.00 | 18 | 1018.3 |
| 20260903165406 | 40 | 221 | 0.0 | 4.8 | 0.00 | 0.00 | 0.00 | 18 | 1018.4 |
| 20260903164906 | 40 | 221 | 1.6 | 4.8 | 0.00 | 0.00 | 0.00 | 18 | 1018.5 |
| 20260903163905 | 40 | 221 | 3.2 | 9.7 | 0.00 | 0.00 | 0.00 | 18 | 1018.6 |
| 20260903163405 | 40 | 221 | 3.2 | 8.0 | 0.00 | 0.00 | 0.00 | 18 | 1018.6 |
| 20260903162905 | 40 | 221 | 6.4 | 12.9 | 0.00 | 0.00 | 0.00 | 18 | 1018.7 |
| 20260903162405 | 40 | 215 | 4.8 | 8.0 | 0.00 | 0.00 | 0.00 | 18 | 1018.6 |
| 20260903161905 | 40 | 206 | 0.0 | 4.8 | 0.00 | 0.00 | 0.00 | 18 | 1018.6 |
| 20260903161406 | 40 | 206 | 0.0 | 8.0 | 0.00 | 0.00 | 0.00 | 18 | 1018.5 |
| 20260903160905 | 40 | 242 | 0.0 | 4.8 | 0.00 | 0.00 | 0.00 | 19 | 1018.5 |
| 20260903160405 | 40 | 304 | 0.0 | 8.0 | 0.00 | 0.00 | 0.00 | 18 | 1018.5 |
| 20260903155905 | 40 | 302 | 4.8 | 8.0 | 0.00 | 0.00 | 0.00 | 18 | 1018.7 |
| 20260903155405 | 40 | 219 | 0.0 | 4.8 | 0.00 | 0.00 | 0.00 | 18 | 1018.7 |
| 20260903154905 | 40 | 219 | 8.0 | 11.3 | 0.00 | 0.00 | 0.00 | 18 | 1018.7 |
| 20260903153905 | 40 | 286 | 1.6 | 8.0 | 0.00 | 0.00 | 0.00 | 18 | 1018.8 |
| 20260903153405 | 40 | 329 | 1.6 | 4.8 | 0.00 | 0.00 | 0.00 | 18 | 1018.7 |
| 20260903152905 | 41 | 161 | 0.0 | 1.6 | 0.00 | 0.00 | 0.00 | 18 | 1018.8 |
| 20260903152405 | 41 | 161 | 3.2 | 9.7 | 0.00 | 0.00 | 0.00 | 18 | 1018.9 |
| 20260903151905 | 40 | 125 | 0.0 | 1.6 | 0.00 | 0.00 | 0.00 | 18 | 1018.9 |
| 20260903151405 | 40 | 125 | 3.2 | 8.0 | 0.00 | 0.00 | 0.00 | 18 | 1019.0 |
| 20260903150906 | 40 | 171 | 3.2 | 11.3 | 0.00 | 0.00 | 0.00 | 18 | 1019.1 |
| 20260903150405 | 40 | 257 | 0.0 | 8.0 | 0.00 | 0.00 | 0.00 | 18 | 1019.2 |
| 20260903145905 | 40 | 253 | 1.6 | 8.0 | 0.00 | 0.00 | 0.00 | 18 | 1019.2 |
| 20260903145405 | 40 | 138 | 4.8 | 11.3 | 0.00 | 0.00 | 0.00 | 18 | 1019.2 |
| 20260903144905 | 40 | 169 | 1.6 | 9.7 | 0.00 | 0.00 | 0.00 | 19 | 1019.3 |
| 20260903144405 | 40 | 198 | 8.0 | 11.3 | 0.00 | 0.00 | 0.00 | 19 | 1019.3 |
| 20260903143405 | 39 | 201 | 8.0 | 12.9 | 0.00 | 0.00 | 0.00 | 19 | 1019.3 |
| 20260903142406 | 39 | 228 | 8.0 | 14.5 | 0.00 | 0.00 | 0.00 | 19 | 1019.7 |
| 20260903141905 | 39 | 204 | 6.4 | 11.3 | 0.00 | 0.00 | 0.00 | 19 | 1019.8 |
| 20260903141405 | 40 | 166 | 8.0 | 12.9 | 0.00 | 0.00 | 0.00 | 19 | 1019.8 |
| 20260903140905 | 40 | 230 | 3.2 | 12.9 | 0.00 | 0.00 | 0.00 | 19 | 1019.9 |
| 20260903140406 | 40 | 187 | 4.8 | 11.3 | 0.00 | 0.00 | 0.00 | 19 | 1019.9 |
| 20260903135905 | 40 | 259 | 4.8 | 9.7 | 0.00 | 0.00 | 0.00 | 19 | 1019.9 |
| 20260903134905 | 38 | 347 | 4.8 | 11.3 | 0.00 | 0.00 | 0.00 | 20 | 1019.9 |
| 20260903133905 | 39 | 215 | 8.0 | 12.9 | 0.00 | 0.00 | 0.00 | 20 | 1020.0 |
| 20260903133406 | 38 | 201 | 8.0 | 14.5 | 0.00 | 0.00 | 0.00 | 20 | 1020.0 |
| 20260903132905 | 38 | 224 | 8.0 | 12.9 | 0.00 | 0.00 | 0.00 | 20 | 1020.2 |
| 20260903132405 | 39 | 347 | 6.4 | 11.3 | 0.00 | 0.00 | 0.00 | 20 | 1020.2 |
| 20260903131905 | 39 | 217 | 6.4 | 9.7 | 0.00 | 0.00 | 0.00 | 20 | 1020.3 |
| 20260903131405 | 39 | 224 | 3.2 | 9.7 | 0.00 | 0.00 | 0.00 | 20 | 1020.3 |
| 20260903130905 | 39 | 110 | 0.0 | 3.2 | 0.00 | 0.00 | 0.00 | 20 | 1020.4 |
| 20260903125905 | 39 | 292 | 0.0 | 1.6 | 0.00 | 0.00 | 0.00 | 20 | 1020.4 |
| 20260903125405 | 38 | 292 | 0.0 | 1.6 | 0.00 | 0.00 | 0.00 | 21 | 1020.5 |
| 20260903124905 | 37 | 292 | 0.0 | 8.0 | 0.00 | 0.00 | 0.00 | 21 | 1020.6 |
| 20260903123904 | 37 | 286 | 3.2 | 9.7 | 0.00 | 0.00 | 0.00 | 21 | 1020.6 |
| 20260903122905 | 37 | 244 | 1.6 | 14.5 | 0.00 | 0.00 | 0.00 | 21 | 1020.6 |
| 20260903122405 | 38 | 174 | 11.3 | 14.5 | 0.00 | 0.00 | 0.00 | 21 | 1020.6 |
| 20260903121905 | 37 | 229 | 9.7 | 12.9 | 0.00 | 0.00 | 0.00 | 21 | 1020.7 |
| 20260903121405 | 37 | 194 | 3.2 | 9.7 | 0.00 | 0.00 | 0.00 | 21 | 1020.7 |
| 20260903120405 | 37 | 355 | 3.2 | 12.9 | 0.00 | 0.00 | 0.00 | 22 | 1020.7 |
| 20260903115405 | 37 | 298 | 4.8 | 14.5 | 0.00 | 0.00 | 0.00 | 22 | 1020.9 |
| 20260903114905 | 37 | 317 | 0.0 | 1.6 | 0.00 | 0.00 | 0.00 | 23 | 1020.9 |
| 20260903114405 | 37 | 288 | 4.8 | 11.3 | 0.00 | 0.00 | 0.00 | 23 | 1020.9 |
| 20260903113904 | 36 | 5 | 3.2 | 11.3 | 0.00 | 0.00 | 0.00 | 24 | 1020.9 |
| 20260903113405 | 36 | 313 | 4.8 | 11.3 | 0.00 | 0.00 | 0.00 | 24 | 1021.0 |
| 20260903112905 | 36 | 329 | 3.2 | 11.3 | 0.00 | 0.00 | 0.00 | 25 | 1021.0 |
| 20260903112405 | 35 | 332 | 0.0 | 11.3 | 0.00 | 0.00 | 0.00 | 26 | 1021.0 |
| 20260903111405 | 35 | 311 | 4.8 | 8.0 | 0.00 | 0.00 | 0.00 | 26 | 1021.0 |
| 20260903110904 | 35 | 316 | 0.0 | 11.3 | 0.00 | 0.00 | 0.00 | 28 | 1021.1 |
| 20260903110404 | 34 | 334 | 1.6 | 9.7 | 0.00 | 0.00 | 0.00 | 28 | 1021.1 |
| 20260903105905 | 34 | 10 | 4.8 | 9.7 | 0.00 | 0.00 | 0.00 | 29 | 1021.2 |
| 20260903105405 | 34 | 302 | 1.6 | 8.0 | 0.00 | 0.00 | 0.00 | 30 | 1021.2 |